HULIANWANG DIGUI-25

Satellite information

Favourite Embed

Satellite Type and Status

PAYLOADIN ORBIT

Key statistics

Satellite HULIANWANG DIGUI-25 at a glance.

Uptime

229

Days in orbit

Revolutions

≈ 13.2

Per day

Orbit

LEO

Low Earth Orbit

Inclination

86.5

Latest

Satellite identification and parameters

Extended collection of information and parameters for HULIANWANG DIGUI-25.

Object identification

Identified? True

Debris? False

Object name: HULIANWANG DIGUI-25

International designator: 2025-086F

Object number (NORAD): 63692

Object ID (CCSDS): 63692

Country: PEOPLES REPUBLIC OF CHINA (PRC)

Current information (Y/N): Y

RCS size: LARGE

Orbital parameters

Period: 108.727 minutes

Inclination: 86.5044 deg

SMA: 7546.042 km

Apoapsis: 1169.448 km

Periapsis: 1166.366 km

RAAN: 15.9823 deg

Eccentricy: 0.00020426

Argument of periapsis: 87.4974 deg

Mean anomaly: 272.6394 deg

Mean motion: 13.24414534 rev/day

Mean motion (dot): 0.00000048 rev/day2

B* drag term: 0.000077824115 1/REarth

Two-line elements (TLE)

Creation date: Dec. 12, 2025, 10:14 a.m.

Reference frame: TEME

Reference center: EARTH

Epoch: Dec. 12, 2025, 7:33 a.m. UTC

TLE line 0: 0 HULIANWANG DIGUI-25

TLE line 1: 1 63692U 25086F 25346.31525980 .00000048 00000-0 77824-4 0 9994

TLE line 2: 2 63692 86.5044 15.9823 0002043 87.4974 272.6394 13.24414534 30121

Live tracking on map

Real-time ground track for satellite HULIANWANG DIGUI-25.

In-orbit conjunctions

There are no conjunctions computed for HULIANWANG DIGUI-25, at the moment. Check back to stay up to date, as we update our databases every day.

Go to all conjunctions

Associated space launch

A batch of 10 Low Earth Orbit communication satellites for the Chinese state owned SatNet constellation operated by the China Satellite Network Group. The constellation will eventually consists of 13000 satellites.

HULIANWANG DIGUI-25 was lifted into orbit during the mission ‘Long March 5B/YZ-2 | SatNet LEO Group 03’, on board a Long March 5B/YZ-2 space rocket.

The launch took place on April 28, 2025, 8:10 p.m. from 101.

For more information about the launch, click the button.

Launch to space Long March 5B/YZ-2 | SatNet LEO Group 03
Long March 5B/YZ-2 | SatNet LEO Group 03

Agency: N/A

Status: Launch Successful

Launch date: April 28, 2025, 8:10 p.m. UTC

Rocket: Long March 5B/YZ-2

Launch pad: 101

Location: Wenchang Space Launch Site, People's Republic of China

...

Latest news about this satellite

News about space launch
China launches third batch of Guowang megaconstellation satellites

China launched a third batch of Guowang megaconstellation satellites Tuesday, advancing its ambitious low Earth orbit communications network to rival Starlink and other global systems. The post China launches third batch of Guowang megaconstellation sate...


Newsletter sign-up

Weekly statistics, charts and insights to help you stay on top of the space industry.